STARLINK-36320, 68090

Orbit data source: Space-Track

STARLINK-36320, 68090 is a payload satellite owned by SpaceX/Seattle (US) in LEO that was launched on Wed, 04 Mar 2026 UTC via an FALCON 9 launch vehicle from the Air Force Eastern Test Range (AFETR). Payload-class satellites include a variety of spacecraft equipped with specific instruments for various scientific and technological missions. These include communications satellites like Starlink; space stations such as the ISS; scientific satellites like the Hubble; Earth observation satellites from companies like Planet Labs, Umbra, and HawkEye 360; GPS; miniature CubeSats for education and research; and military/defense satellites.

Loading next visibility...
Identifier
68090, 2026-042X
Orbit
LEO
Country
Flag of USUS
Related business
Manufacturer
SpaceX/Seattle
Mission
Operational spacecraft
Bus & Motor
STARLINK V2MO, Unknown motor
Mass
575 kg wet, ~530 kg dry
Launch date (UTC)
2026-03-04 (1 month ago)
Launch vehicle
FALCON 9
Launch site
Air Force Eastern Test Range (AFETR)
Object type
Payload
Rocket body
Debris
Shape & HBR
Unknown shape, 17.7 m
Radar Cross Section
RCS unknown

Expand to show TLE details & history
Last TLE update: 18 hours ago

TLE from 18 hours ago
0 STARLINK-36320
1 68090U 26042X   26100.11199177  .00203975  00000-0  12998-2 0  9999
2 68090  53.1598  37.9855 0000754  72.1043 288.0060 15.75295272  7046
Epoch: 2026-04-10T02:41Z
TLE epoch observation values (Epoch: 2026-04-10T02:41:16.088Z)
Latitude
-0.00001°
Longitude
159.31813°
Altitude
344.552 km
Speed
7.703 km/s
True Right ascension
02h 31m 56s
True Declination
0° 00' 00"
Sunlit
Object was in daylight at epoch
Visualization orbit readout
Latitude
Unknown
Longitude
Unknown
Altitude
Unknown
Speed
Unknown
Apparent Right ascension
Unknown
Apparent Declination
Unknown
Sunlit
N/A
Visualization observer readout
Local Sidereal Time
03:11:05
Azimuth
Unknown
Elevation
Unknown
Doppler factor
Unknown
Orbital elements
Apogee altitude
344.559 km
Perigee altitude
343.546 km
Semi-major axis
6,722.189 km
Eccentricity
0.00008
Inclination
53.1598°
RAAN
37.9855°
Arg. of periapsis
72.1043°
True anomaly
287.99778°
Mean anomaly
288.006°
Eccentric anomaly
288.00189°
Mean motion
3.93801 °/min
Orbital period
91.42 mins
BSTAR
0.0012998
Loading maneuver chart data...
Computing Atmospheric mass density...
Loading historical data...
Loading historical data...
Loading historical data...
Loading historical data...
Loading historical data...
Loading historical data...
Loading historical data...

Documentation

Showing up to 5 results
|